Regional Weather Roundup
Issued by NWS Upton, NY

Current Version | Previous Version | Graphics & Text | Print | Product List | Glossary On
Versions: 1 2 3 4 5 6 7 8 9 10 11 12 13 14 15 16 17 18 19 20 21 22 23 24
000 ASUS41 KOKX 230705 RWROKX Regional Weather Roundup National Weather Service New York NY 300 AM EDT WED MAY 23 2018 Note: "FAIR" indicates few or no clouds below 12,000 feet with no significant weather and/or obstructions to visibility. NYZ071-072-176-178-NJZ106-104-230800- New York City Metro Area CITY SKY/WX TMP DP RH WIND PRES REMARKS Central Park RAIN 59 58 96 W3 29.94F FOG Bronx Bot Gard N/A 57 57 100 CALM 29.93S Bronx Lehman C N/A 59 57 94 W2 N/A LaGuardia Arpt LGT RAIN 59 56 89 CALM 29.91F FOG Queens College N/A 59 57 94 S2 N/A Kennedy Intl CLOUDY 58 57 97 SW6 29.94S Breezy Point N/A 55 N/A N/A W1 N/A Brooklyn Coll N/A 59 55 88 SW3 N/A Staten Island N/A 57 57 100 SW3 N/A Newark/Liberty LGT RAIN 58 57 97 SW3 29.93F FOG Teterboro RAIN 59 58 96 CALM 29.91F FOG $$ NYZ177-179-078>081-230800- Long Island New York CITY SKY/WX TMP DP RH WIND PRES REMARKS Jones Beach N/A 55 N/A N/A CALM N/A Wantagh N/A 57 55 94 SW2 N/A Hempstead N/A 59 57 94 SW2 29.95F Matinecock Pt N/A 55 N/A N/A W6 N/A Farmingdale RAIN 58 57 97 SW5 29.92F MacArthur/ISP CLOUDY 57 57 100 SW5 29.91F FOG Stony Brook N/A 57 55 94 W1 N/A Shirley CLOUDY 57 57 100 S5 29.91F Mt Sinai Harb N/A N/A N/A N/A MISG N/A Westhampton CLOUDY 56 54 93 CALM 29.92F East Hampton CLOUDY 55 54 97 CALM 29.90F Southold N/A 55 55 100 W2 N/A Montauk N/A 54 53 97 CALM 29.92F $$ NYZ052-065-067-230800- Hudson Valley CITY SKY/WX TMP DP RH WIND PRES REMARKS White Plains LGT RAIN 56 56 100 CALM 29.92F VSB 1 Larchmont Harb N/A 55 N/A N/A S3 N/A Croton On Huds N/A 57 N/A N/A MISG N/A Somers N/A 55 55 100 SW3 N/A Brewster N/A 55 54 94 S2 N/A Newburgh LGT RAIN 57 57 100 W6 29.92F Montgomery LGT RAIN 57 56 96 SW9 29.90F Otisville N/A 55 55 100 SW2 N/A Warwick N/A 57 57 100 W5 N/A Suffern N/A 55 55 100 W1 N/A Poughkeepsie CLOUDY 57 56 96 S5 29.90F FOG Albany CLOUDY 58 53 84 S8 29.89F $$ NJZ001-105-106-008-010-013-015-019>022-104-230800- New Jersey CITY SKY/WX TMP DP RH WIND PRES REMARKS Newark/Liberty LGT RAIN 58 57 97 SW3 29.93F FOG Teterboro RAIN 59 58 96 CALM 29.91F FOG Caldwell RAIN 57 57 100 CALM 29.92F FOG Somerville TSTM 57 57 100 CALM 29.91 FOG Linden CLOUDY 59 57 92 CALM 29.93F FOG Perth Amboy N/A 57 N/A N/A NW7 N/A Sussex LGT RAIN 57 57 100 SE3 29.91F Andover N/A 57 57 100 SW5 29.89F Trenton CLOUDY 59 59 100 N7 29.94S FOG Millville MOCLDY 64 64 100 CALM 29.92S FOG Atlantic City FOG 64 64 100 CALM 29.92F VSB 1/4 Wrightstown CLOUDY 59 59 100 CALM 29.90 FOG Toms River CLOUDY 58 58 100 CALM 29.94F FOG Belmar CLOUDY 57 57 100 SW3 29.94F FOG $$ PAZ047>061-062-071-230800- Eastern Pennsylvania CITY SKY/WX TMP DP RH WIND PRES REMARKS Philadelphia CLOUDY 62 61 96 E5 29.93 FOG Allentown TSTM 61 58 90 W8 29.93R FOG Scranton LGT RAIN 59 59 100 N3 29.91F $$ CTZ002-004>006-009-010-012-RIZ004-006-007-MAZ004-011-015-230800- Southern New England In CT CITY SKY/WX TMP DP RH WIND PRES REMARKS Bradley Intl CLOUDY 55 55 100 S7 29.90F Hartford CLOUDY 56 54 93 S5 29.90F Danbury TSTM 56 56 100 CALM 29.92F FOG Wtrbury/Oxford RAIN 54 54 100 VRB5 29.93S VSB 1 Norwalk Harbor N/A 54 N/A N/A W5 N/A Bridgeport LGT RAIN 57 56 96 W6 29.92S VSB 3/4 Meriden LGT RAIN 55 54 96 S3 29.91F New Haven CLOUDY 56 54 93 CALM 29.91F Chester CLOUDY 55 55 100 SW5 29.91S FOG Groton CLOUDY 55 54 96 CALM 29.90S Willimantic CLOUDY 55 53 93 CALM 29.90F In RI CITY SKY/WX TMP DP RH WIND PRES REMARKS Providence CLOUDY 54 52 93 SW5 29.89 Block Island CLOUDY 54 54 100 W3 29.91S Westerly CLOUDY 55 55 100 W3 29.91F In MA CITY SKY/WX TMP DP RH WIND PRES REMARKS Boston CLOUDY 54 51 90 SW7 29.88F Worcester CLOUDY 52 52 100 W12 29.87F FOG Westfield CLOUDY 55 55 100 CALM 29.89S Provincetown CLOUDY 53 51 93 S9 29.89F Nantucket CLOUDY 53 53 100 NE6 29.90F FOG $$ ANZ330-335-338-340-345-350-353-355-230800- Coastal Marine Observations STATION/POSITION TIME SKY/WX TEMP WIND PRES VSBY WAVE AIR SEA DIR/SP/G HT/PER (UTC) (F) (DEG/KT/KT) (MB) (MI) (FT/S) NY Harb Entrance 0650 56 56 CALM / 2 1013.5 2/ 9 20 S Fire Island 0650 54 53 CALM / 2 1013.5 2/ 8 23 SSW Montauk P 0650 53 54 290/ 2/ 4 1013.2 2/ 8 15 E Barnegat Li 0630 56 N/A 2/ 8 Hudson Canyon 0650 56 53 260/ 4/ 6 1012.7 3/ 9 Kings Point 0648 57 N/A Execution Rocks NOT AVBL Western LI Sound NOT AVBL Central LI Sound 0630 55 170/ 2/ 4 N/A 0 Robbins Reef 0642 290/ 5/ 6 1014.3 $$ >>>>>>>>>>>>>>>>>>>>>>>>>>>> KEY <<<<<<<<<<<<<<<<<<<<<<<<<<< > < > SKY/WX - Sky Condition/Present Weather < > TMP - Temperature in Fahrenheit < > DP - Dew Point in Fahrenheit < > RH - Relative Humidity in Percent < > WIND - Direction (from) and Speed in MPH < > PRES - Mean Sea Level Pressure (inches of Hg) < > WCI - Wind Chill Index < > VSB - Visibility in Miles < > HX - Heat Index < > TC - Temperature in Celsius < > VRB - Varibale Wind Direction < > < >>>>>>>>>>>>>>>>>>>>>>>>>>>> KEY <<<<<<<<<<<<<<<<<<<<<<<<<<<

USA.gov is the U.S. government's official web portal to all federal, state and local government web resources and services.